Date,TemperatureHighF,TemperatureAvgF,TemperatureLowF,DewpointHighF,DewpointAvgF,DewpointLowF,HumidityHigh,HumidityAvg,HumidityLow,PressureMaxIn,PressureMinIn,WindSpeedMaxMPH,WindSpeedAvgMPH,GustSpeedMaxMPH,PrecipitationSumIn
2013-6-1,75.0,68.8,63.0,68.0,62.2,60.0,93,80,65,0.00,40.00,0,0,0,0.77
2013-6-2,63.0,54.8,46.0,60.0,50.0,43.0,92,84,72,0.00,40.00,0,0,0,0.22
2013-6-3,66.0,54.6,42.0,46.0,41.6,34.0,96,66,31,0.00,40.00,1,0,0,0.00
2013-6-4,71.0,59.4,47.0,51.0,45.3,41.0,92,63,36,0.00,40.00,2,0,0,0.00
2013-6-5,76.0,64.0,55.0,52.0,49.6,45.0,87,62,34,0.00,40.00,2,0,0,0.00
2013-6-6,63.0,59.8,54.0,55.0,37.2,-99.9,90,70,57,0.00,40.00,0,0,0,0.11
2013-6-7,63.0,57.1,54.0,51.0,48.1,40.0,88,72,48,0.00,40.00,0,0,0,0.04
2013-6-8,72.0,61.2,50.0,51.0,42.1,-99.9,90,62,40,0.00,40.00,3,0,0,0.00
2013-6-9,80.0,69.9,56.0,61.0,54.2,50.0,88,60,38,0.00,40.00,3,0,0,0.00
2013-6-10,76.0,67.7,61.0,64.0,62.2,59.0,95,83,62,0.00,40.00,1,0,0,0.53
2013-6-11,85.0,71.3,60.0,67.0,61.0,58.0,95,73,41,0.00,40.00,0,0,0,0.15
2013-6-12,84.0,72.4,64.0,72.0,66.8,61.0,94,83,64,0.00,40.00,0,0,0,1.76
2013-6-13,67.0,63.1,58.0,62.0,54.8,51.0,95,75,57,0.00,40.00,0,0,0,1.82
2013-6-14,72.0,62.4,56.0,55.0,52.5,51.0,85,71,50,0.00,40.00,0,0,0,0.04
2013-6-15,78.0,67.7,58.0,66.0,60.4,55.0,90,77,63,0.00,40.00,0,0,0,0.03
2013-6-16,82.0,73.0,67.0,66.0,63.9,62.0,88,74,50,0.00,40.00,0,0,0,0.03
2013-6-17,88.0,76.4,63.0,65.0,55.0,-99.9,92,60,31,0.00,40.00,2,0,0,0.01
2013-6-18,66.0,59.7,58.0,57.0,54.1,49.0,94,82,61,0.00,40.00,0,0,0,0.01
2013-6-19,74.0,64.7,55.0,54.0,44.3,-99.9,90,61,32,0.00,40.00,1,0,0,0.00
2013-6-20,83.0,69.2,59.0,63.0,57.6,54.0,91,69,49,0.00,40.00,3,0,0,0.00
2013-6-22,82.0,77.5,71.0,70.0,67.2,63.0,79,70,58,0.00,40.00,0,0,0,0.11
2013-6-23,85.0,75.0,68.0,70.0,66.2,64.0,89,75,55,0.00,40.00,0,0,0,0.43
2013-6-24,85.0,73.7,68.0,73.0,66.8,65.0,90,80,58,0.00,40.00,0,0,0,0.27
2013-6-25,87.0,77.7,69.0,73.0,69.0,64.0,90,75,58,0.00,40.00,0,0,0,0.23
2013-6-26,82.0,73.9,67.0,70.0,66.1,63.0,93,78,57,0.00,40.00,0,0,0,0.31
2013-6-27,90.0,76.3,66.0,70.0,66.7,64.0,94,75,43,0.00,40.00,0,0,0,0.20
2013-6-28,82.0,73.3,67.0,67.0,61.3,55.0,93,68,40,0.00,40.00,0,0,0,0.20
2013-6-29,68.0,65.5,63.0,65.0,58.0,-99.9,93,86,73,0.00,40.00,0,0,0,0.06
2013-6-30,70.0,66.6,63.0,61.0,28.3,-99.9,91,73,51,0.00,40.00,0,0,0,0.02